• In Deutschland
  • Länderverzeichnis
  • Für 7 Tage
  • Wassertemperatur
  • Satellitenkarten
  • Wetterkarte
  • Widgets
  • user-avatar
    Anmelden

    Stündliche Wetter Klagenfurt

    Heute, 21 Januar, Sonntag

    Zeit Temperatur Niederschläge Wind Luftdruck Luftfeuchtigkeit
    00:00 -3°C° 0,2 mm 2 m/S 678 mmHg 88%
    01:00 -3°C° 0,2 mm 2 m/S 678 mmHg 90%
    02:00 0°C° 0,1 mm 1 m/S 677 mmHg 91%
    03:00 0°C° 0,1 mm 1 m/S 677 mmHg 91%
    04:00 0°C° 0,1 mm 1 m/S 676 mmHg 92%
    05:00 -1°C° 0,2 mm 1 m/S 676 mmHg 92%
    06:00 -1°C° 0,2 mm 1 m/S 677 mmHg 91%
    07:00 -1°C° 0,2 mm 1 m/S 677 mmHg 91%
    08:00 0°C° 0 mm 1 m/S 678 mmHg 85%
    09:00 +1°C° 0 mm 2 m/S 679 mmHg 80%
    10:00 +2°C° 0 mm 2 m/S 680 mmHg 74%
    11:00 +3°C° 0 mm 2 m/S 680 mmHg 67%
    12:00 +2°C° 0 mm 3 m/S 681 mmHg 59%
    13:00 +3°C° 0 mm 4 m/S 682 mmHg 52%
    14:00 +1°C° 0 mm 4 m/S 682 mmHg 55%
    15:00 +1°C° 0 mm 3 m/S 683 mmHg 58%
    16:00 0°C° 0 mm 3 m/S 684 mmHg 61%
    17:00 -1°C° 0 mm 2 m/S 684 mmHg 64%
    18:00 -2°C° 0 mm 2 m/S 685 mmHg 68%
    19:00 -4°C° 0 mm 2 m/S 686 mmHg 72%
    20:00 -2°C° 0 mm 1 m/S 686 mmHg 73%
    21:00 -2°C° 0 mm 1 m/S 687 mmHg 75%
    22:00 -3°C° 0 mm 1 m/S 688 mmHg 76%
    23:00 -3°C° 0 mm 1 m/S 688 mmHg 76%

    Morgen, 22 Januar, Montag

    Zeit Temperatur Niederschläge Wind Luftdruck Luftfeuchtigkeit
    00:00 -3°C° 0 mm 1 m/S 688 mmHg 77%
    01:00 -3°C° 0 mm 1 m/S 688 mmHg 78%
    02:00 -3°C° 0 mm 1 m/S 688 mmHg 77%
    03:00 -3°C° 0 mm 1 m/S 687 mmHg 77%
    04:00 -4°C° 0 mm 0 m/S 687 mmHg 77%
    05:00 -3°C° 0,1 mm 1 m/S 687 mmHg 78%
    06:00 -3°C° 0,1 mm 1 m/S 687 mmHg 79%
    07:00 -2°C° 0,1 mm 1 m/S 687 mmHg 80%
    08:00 -2°C° 0,3 mm 1 m/S 687 mmHg 78%
    09:00 -1°C° 0,3 mm 1 m/S 687 mmHg 77%
    10:00 -1°C° 0,3 mm 1 m/S 687 mmHg 75%
    11:00 0°C° 0,1 mm 1 m/S 687 mmHg 72%
    12:00 +1°C° 0,1 mm 1 m/S 687 mmHg 69%
    13:00 +1°C° 0,1 mm 2 m/S 686 mmHg 67%
    14:00 +2°C° 0 mm 1 m/S 686 mmHg 70%
    15:00 +2°C° 0 mm 1 m/S 686 mmHg 73%
    16:00 +2°C° 0 mm 1 m/S 686 mmHg 77%
    17:00 +1°C° 0 mm 1 m/S 686 mmHg 79%
    18:00 0°C° 0 mm 1 m/S 686 mmHg 81%
    19:00 0°C° 0 mm 1 m/S 686 mmHg 84%
    20:00 0°C° 0 mm 1 m/S 686 mmHg 84%
    21:00 -1°C° 0 mm 1 m/S 687 mmHg 84%
    22:00 -1°C° 0 mm 1 m/S 687 mmHg 84%
    23:00 -1°C° 0 mm 1 m/S 688 mmHg 84%

    übermorgen, 23 Januar, Dienstag

    Zeit Temperatur Niederschläge Wind Luftdruck Luftfeuchtigkeit
    00:00 -1°C° 0 mm 1 m/S 688 mmHg 84%
    01:00 -1°C° 0 mm 1 m/S 688 mmHg 84%
    02:00 0°C° 0 mm 1 m/S 689 mmHg 84%
    03:00 0°C° 0 mm 1 m/S 689 mmHg 84%
    04:00 0°C° 0 mm 1 m/S 689 mmHg 84%
    05:00 0°C° 0 mm 1 m/S 690 mmHg 84%
    06:00 0°C° 0 mm 1 m/S 691 mmHg 85%
    07:00 0°C° 0 mm 1 m/S 691 mmHg 85%
    08:00 +1°C° 0 mm 1 m/S 692 mmHg 82%
    09:00 +2°C° 0 mm 1 m/S 693 mmHg 79%
    10:00 +4°C° 0 mm 1 m/S 694 mmHg 75%
    11:00 +4°C° 0 mm 1 m/S 694 mmHg 73%
    12:00 +5°C° 0 mm 1 m/S 694 mmHg 71%
    13:00 +6°C° 0 mm 1 m/S 695 mmHg 69%
    14:00 +6°C° 0 mm 1 m/S 695 mmHg 74%
    15:00 +5°C° 0 mm 1 m/S 695 mmHg 78%
    16:00 +4°C° 0 mm 1 m/S 695 mmHg 82%
    17:00 +3°C° 0 mm 1 m/S 695 mmHg 85%
    18:00 +1°C° 0 mm 1 m/S 695 mmHg 87%
    19:00 0°C° 0 mm 1 m/S 696 mmHg 89%
    20:00 0°C° 0 mm 1 m/S 696 mmHg 89%
    21:00 0°C° 0 mm 1 m/S 696 mmHg 89%
    22:00 -1°C° 0 mm 1 m/S 696 mmHg 88%
    23:00 -1°C° 0 mm 1 m/S 696 mmHg 88%

    24 Januar, Mittwoch

    Zeit Temperatur Niederschläge Wind Luftdruck Luftfeuchtigkeit
    00:00 -1°C° 0 mm 1 m/S 697 mmHg 87%
    01:00 -1°C° 0 mm 1 m/S 697 mmHg 87%
    02:00 -1°C° 0 mm 1 m/S 697 mmHg 87%
    03:00 -1°C° 0 mm 1 m/S 696 mmHg 86%
    04:00 -1°C° 0 mm 1 m/S 696 mmHg 86%
    05:00 -1°C° 0 mm 1 m/S 696 mmHg 86%
    06:00 -1°C° 0 mm 1 m/S 696 mmHg 85%
    07:00 -1°C° 0 mm 1 m/S 696 mmHg 85%
    08:00 -1°C° 0 mm 0 m/S 697 mmHg 81%
    09:00 +1°C° 0 mm 0 m/S 697 mmHg 78%
    10:00 +2°C° 0 mm 0 m/S 697 mmHg 74%
    11:00 +3°C° 0 mm 0 m/S 697 mmHg 72%
    12:00 +6°C° 0 mm 1 m/S 697 mmHg 70%
    13:00 +7°C° 0 mm 1 m/S 697 mmHg 68%
    14:00 +6°C° 0 mm 1 m/S 696 mmHg 72%
    15:00 +5°C° 0 mm 1 m/S 696 mmHg 77%
    16:00 +4°C° 0 mm 1 m/S 696 mmHg 81%
    17:00 +3°C° 0 mm 1 m/S 696 mmHg 84%
    18:00 +2°C° 0 mm 1 m/S 696 mmHg 86%
    19:00 +1°C° 0 mm 1 m/S 696 mmHg 88%
    20:00 +1°C° 0 mm 1 m/S 696 mmHg 88%
    21:00 +1°C° 0 mm 1 m/S 695 mmHg 88%
    22:00 0°C° 0 mm 1 m/S 695 mmHg 88%
    23:00 0°C° 0 mm 1 m/S 695 mmHg 88%

    25 Januar, Donnerstag

    Zeit Temperatur Niederschläge Wind Luftdruck Luftfeuchtigkeit
    00:00 0°C° 0 mm 1 m/S 695 mmHg 88%
    01:00 0°C° 0 mm 1 m/S 695 mmHg 87%
    02:00 0°C° 0 mm 1 m/S 694 mmHg 87%
    03:00 0°C° 0 mm 1 m/S 694 mmHg 87%
    04:00 0°C° 0 mm 1 m/S 693 mmHg 87%
    05:00 0°C° 0 mm 1 m/S 693 mmHg 87%
    06:00 0°C° 0 mm 1 m/S 693 mmHg 87%
    07:00 0°C° 0 mm 1 m/S 693 mmHg 87%
    08:00 +1°C° 0 mm 1 m/S 693 mmHg 85%
    09:00 +2°C° 0 mm 1 m/S 693 mmHg 82%
    10:00 +4°C° 0 mm 1 m/S 693 mmHg 79%
    11:00 +5°C° 0 mm 1 m/S 693 mmHg 78%
    12:00 +5°C° 0 mm 1 m/S 692 mmHg 77%
    13:00 +5°C° 0 mm 2 m/S 692 mmHg 76%
    14:00 +6°C° 0 mm 1 m/S 692 mmHg 79%
    15:00 +5°C° 0 mm 1 m/S 691 mmHg 83%
    16:00 +4°C° 0 mm 1 m/S 691 mmHg 87%
    17:00 +3°C° 0 mm 1 m/S 691 mmHg 89%
    18:00 +2°C° 0 mm 1 m/S 691 mmHg 91%
    19:00 +1°C° 0 mm 1 m/S 690 mmHg 93%
    20:00 +1°C° 0 mm 1 m/S 690 mmHg 93%
    21:00 +1°C° 0 mm 1 m/S 690 mmHg 93%
    22:00 +1°C° 0 mm 1 m/S 690 mmHg 93%
    23:00 +1°C° 0 mm 1 m/S 690 mmHg 93%

    26 Januar, Freitag

    Zeit Temperatur Niederschläge Wind Luftdruck Luftfeuchtigkeit
    00:00 +1°C° 0 mm 1 m/S 690 mmHg 93%
    01:00 +1°C° 0 mm 1 m/S 690 mmHg 94%
    02:00 +1°C° 0 mm 1 m/S 689 mmHg 93%
    03:00 +1°C° 0 mm 1 m/S 689 mmHg 93%
    04:00 +1°C° 0 mm 1 m/S 689 mmHg 93%
    05:00 +2°C° 0,1 mm 1 m/S 689 mmHg 93%
    06:00 +2°C° 0,1 mm 1 m/S 689 mmHg 93%
    07:00 +2°C° 0,1 mm 1 m/S 689 mmHg 93%
    08:00 +2°C° 0,1 mm 1 m/S 689 mmHg 92%
    09:00 +3°C° 0,1 mm 1 m/S 689 mmHg 91%
    10:00 +4°C° 0,1 mm 1 m/S 689 mmHg 90%
    11:00 +4°C° 0,2 mm 1 m/S 689 mmHg 89%
    12:00 +5°C° 0,2 mm 1 m/S 689 mmHg 89%
    13:00 +6°C° 0,2 mm 1 m/S 689 mmHg 89%
    14:00 +5°C° 0,3 mm 1 m/S 690 mmHg 91%
    15:00 +5°C° 0,3 mm 1 m/S 690 mmHg 92%
    16:00 +5°C° 0,3 mm 1 m/S 690 mmHg 94%
    17:00 +4°C° 0,2 mm 1 m/S 690 mmHg 94%
    18:00 +4°C° 0,2 mm 1 m/S 690 mmHg 95%
    19:00 +4°C° 0,2 mm 1 m/S 691 mmHg 96%
    20:00 +4°C° 0,1 mm 1 m/S 691 mmHg 96%
    21:00 +4°C° 0,1 mm 1 m/S 691 mmHg 96%
    22:00 +4°C° 0,1 mm 1 m/S 692 mmHg 96%
    23:00 +4°C° 0,1 mm 1 m/S 692 mmHg 96%
    Mehr zeigen